Regional Weather Roundup
Issued by NWS

Home | Current Version | Previous Version | Text Only | Print | Product List | Glossary On
Versions: 1 2 3 4 5 6 7 8 9 10 11 12 13 14 15 16 17 18 19 20 21 22 23 24 25 26 27 28 29 30 31 32 33 34 35 36 37 38 39 40 41 42 43 44 45 46 47 48 49 50
000
ASUS45 KREV 271610
RWRNV
NEVADA REGIONAL WEATHER ROUNDUP
NATIONAL WEATHER SERVICE RENO NV
900 AM PDT FRI MAR 27 2015

NOTE: "FAIR" INDICATES FEW OR NO CLOUDS BELOW 12,000 FEET WITH NO
SIGNIFICANT WEATHER AND/OR OBSTRUCTIONS TO VISIBILITY.

NVZ001-003-004-271700-
WESTERN NEVADA

CITY           SKY/WX    TMP DP  RH WIND       PRES   REMARKS
RENO           SUNNY     53  36  52 CALM      30.27S
CARSON CITY    FAIR      50  32  50 CALM      30.28S
MINDEN         FAIR      48  30  49 CALM      30.29S
FALLON         SUNNY     58  29  33 S7        30.23F
LOVELOCK       SUNNY     50  31  48 W3        30.24S
HAWTHORNE      SUNNY     55  28  35 CALM      30.27S
$$

NVZ002-CAZ072-073-271700-
NORTHERN AND CENTRAL SIERRA

CITY           SKY/WX    TMP DP  RH WIND       PRES   REMARKS
S. LAKE TAHOE  SUNNY     43  33  68 MISG      30.34R
TRUCKEE        FOG       36  36 100 CALM      30.34S VSB 1/4
SQUAW VLY 8000   N/A     46  19  34 SW5         N/A
SUSANVILLE     SUNNY     50  39  66 CALM      30.24S
BLUE CANYON    SUNNY     60  28  29 CALM      30.30R
MAMMOTH LAKES  FAIR      45  25  45 CALM      30.38S
BRIDGEPORT     FAIR      40  27  59 CALM      30.33F
$$

NVZ030-031-036-271700-
NORTHERN NEVADA

CITY           SKY/WX    TMP DP  RH WIND       PRES   REMARKS
ELKO           SUNNY     45  30  55 CALM      30.32S
WINNEMUCCA     SUNNY     50  32  50 E5        30.25F
WENDOVER       SUNNY     48  27  43 SE5       30.33S
$$

NVZ035-037-271700-
CENTRAL NEVADA

CITY           SKY/WX    TMP DP  RH WIND       PRES   REMARKS
ELY            SUNNY     50  24  36 S8        30.35S
EUREKA           N/A     52  28  39 CALM      30.32F
$$

NVZ013-014-271700-
SOUTH CENTRAL NEVADA

CITY           SKY/WX    TMP DP  RH WIND       PRES   REMARKS
TONOPAH        SUNNY     52  21  29 E3        30.32S
$$

NVZ017-020-022-271700-
SOUTHERN NEVADA

CITY           SKY/WX    TMP DP  RH WIND       PRES   REMARKS
LAS VEGAS      SUNNY     71  27  19 S3        30.16R
N. LAS VEGAS   SUNNY     69  24  18 N5        30.19R
NELLIS AFB     SUNNY     61  28  28 CALM      30.19R
HENDERSON      SUNNY     68  28  22 CALM      30.22R
MERCURY        SUNNY     65  27  23 CALM      30.22S
$$


USA.gov is the U.S. government's official web portal to all federal, state and local government web resources and services.